Kingman, AZ

8:52 PM MST on May 24, 2017 (GMT -0700)
Kingman

Weather History for KIGM - December, 2012

Change the Weather History Date:

Monday, December 17, 2012

  Actual Average Record
Temperature  
Mean Temperature 45 °F 42 °F  
Max Temperature 49 °F 54 °F 74 °F (1980)
Min Temperature 40 °F 31 °F 17 °F (2005)
Degree Days  
Heating Degree Days 20 23  
Month to date heating degree days 290 364  
Since 1 July heating degree days 698 930  
Cooling Degree Days 0 0  
Month to date cooling degree days 0 0  
Year to date cooling degree days 2297 2093  
Moisture  
Dew Point 37 °F    
Average Humidity 81    
Maximum Humidity 92    
Minimum Humidity 70    
Precipitation  
Precipitation 0.00 in 0.02 in 1.23 in (2008)
Month to date precipitation 0.42 0.40  
Year to date precipitation 7.30 8.05  
Sea Level Pressure  
Sea Level Pressure 30.03 in    
Wind  
Wind Speed 4 mph (SE)    
Max Wind Speed 12 mph    
Max Gust Speed 14 mph    
Visibility 10 miles    
Events      
T = Trace of Precipitation, MM = Missing Value Source: NWS Daily Summary

Daily Weather History Graph

Daily Weather History Graph

Search for Another Location

Airport or City:

Trip Planner

Search our weather history database for the weather conditions in past years. The results will help you decide how hot, cold, wet, or windy it might be!

Date:

Astronomy

Dec. 17, 2012 Rise Set
Actual Time 7:38 AM MST 5:25 PM MST
Civil Twilight 7:10 AM MST 5:54 PM MST
Nautical Twilight 6:38 AM MST 6:25 PM MST
Astronomical Twilight 6:07 AM MST 6:56 PM MST
Moon 10:58 AM MST (12/17) 10:41 PM MST (12/17)
Length of Visible Light 10h 43m
Length of Day
9h 47m
Waxing Crescent, 25% of the Moon is Illuminated
Dec 17
Waxing Crescent
Dec 19
First Quarter
Dec 28
Full
Jan 4
Last Quarter
Jan 11
New

Hourly Weather History & Observations

Time (MST) Temp. Windchill Dew Point Humidity Pressure Visibility Wind Dir Wind Speed Gust Speed Precip Events Conditions
12:51 AM 42.1 °F 40.2 °F 36.0 °F 79% 30.06 in 10.0 mi SE 3.5 mph - N/A   Overcast
1:51 AM 42.1 °F 40.2 °F 35.1 °F 76% 30.05 in 10.0 mi ESE 3.5 mph - N/A   Overcast
2:51 AM 42.1 °F 37.7 °F 34.0 °F 73% 30.04 in 10.0 mi ESE 6.9 mph - N/A   Overcast
3:51 AM 42.1 °F 39.2 °F 34.0 °F 73% 30.04 in 10.0 mi ESE 4.6 mph - N/A   Overcast
4:51 AM 41.0 °F 38.0 °F 36.0 °F 82% 30.03 in 10.0 mi ESE 4.6 mph - N/A   Overcast
5:51 AM 41.0 °F 36.4 °F 34.0 °F 76% 30.04 in 10.0 mi SE 6.9 mph - N/A   Overcast
6:12 AM 41.0 °F 35.8 °F 33.8 °F 76% 30.11 in 10.0 mi ESE 8.1 mph - N/A   Overcast
6:51 AM 42.1 °F 38.4 °F 34.0 °F 73% 30.05 in 10.0 mi SE 5.8 mph - N/A   Overcast
7:51 AM 42.1 °F 37.7 °F 34.0 °F 73% 30.04 in 10.0 mi ESE 6.9 mph - N/A   Overcast
8:51 AM 43.0 °F 40.3 °F 35.1 °F 74% 30.04 in 10.0 mi SE 4.6 mph - N/A   Overcast
9:51 AM 45.0 °F 42.6 °F 37.0 °F 74% 30.06 in 10.0 mi WSW 4.6 mph - N/A   Overcast
10:30 AM 46.4 °F - 37.4 °F 71% 30.14 in 10.0 mi Calm Calm - N/A   Overcast
10:51 AM 46.0 °F - 37.9 °F 73% 30.06 in 10.0 mi Calm Calm - N/A   Overcast
11:01 AM 46.4 °F - 37.4 °F 71% 30.14 in 10.0 mi Calm Calm - N/A   Overcast
11:13 AM 46.4 °F - 37.4 °F 71% 30.14 in 10.0 mi Calm Calm - N/A   Overcast
11:16 AM 46.4 °F 45.2 °F 37.4 °F 71% 30.13 in 10.0 mi NE 3.5 mph - N/A   Overcast
11:51 AM 46.9 °F - 37.0 °F 68% 30.03 in 10.0 mi Calm Calm - N/A   Overcast
12:51 PM 46.9 °F - 37.0 °F 68% 30.01 in 10.0 mi Variable 3.5 mph - N/A   Overcast
1:34 PM 48.2 °F - 37.4 °F 66% 30.08 in 10.0 mi SW 11.5 mph - N/A   Overcast
1:51 PM 48.9 °F - 39.0 °F 69% 29.98 in 10.0 mi WSW 10.4 mph - N/A   Overcast
2:51 PM 48.9 °F - 39.0 °F 69% 29.95 in 10.0 mi Calm Calm - N/A   Overcast
5:51 PM 46.0 °F - 39.0 °F 76% 29.93 in 10.0 mi Calm Calm - N/A   Mostly Cloudy
6:51 PM 43.0 °F 39.5 °F 37.9 °F 82% 29.94 in 10.0 mi ESE 5.8 mph - N/A   Mostly Cloudy
7:51 PM 39.9 °F 34.5 °F 37.0 °F 89% 29.94 in 10.0 mi SE 8.1 mph - N/A   Mostly Cloudy
8:51 PM 43.0 °F 41.3 °F 37.9 °F 82% 29.93 in 10.0 mi ESE 3.5 mph - N/A   Unknown
9:51 PM 44.1 °F 42.5 °F 39.0 °F 82% 29.92 in 10.0 mi SE 3.5 mph - N/A   Unknown